Home   Weather   New Washington   Past weeks
Flag for USA

Past Weather in New Washington, Indiana, USA — Yesterday and Last 2 Weeks

Now
67 °F

Mostly cloudy.


Feels Like: 67 °F
Forecast: 72 / 57 °F
Wind: 9 mph from South

Location: Standiford Field

Current Time: Oct 19, 2019 at 11:41:05 pm

Latest Report: Oct 19, 2019 at 10:56 pm


Visibility: 10 mi

Pressure: 29.80 "Hg

Humidity: 59%

Dew Point: 52 °F

Location of New WashingtonLocation

Past Weather in New Washington — Graph

°F

New Washington Temperature Yesterday

Maximum temperature yesterday: 65 °F (at 4:56 pm)
Minimum temperature yesterday: 41 °F (at 7:56 am)
Average temperature yesterday: 54 °F

High & Low Weather Summary for the Past Weeks

 TemperatureHumidityPressure
High85 °F (Oct 5, 5:56 pm)96% (Oct 8, 5:56 am)30.23 "Hg (Oct 8, 5:56 am)
Low40 °F (Oct 12, 6:56 am)22% (Oct 14, 3:56 pm)29.75 "Hg (Oct 16, 2:56 am)
Average60 °F65%30.06 "Hg
* Reported Oct 4 9:56 pm — Oct 19 9:56 pm, New Washington. Weather by CustomWeather, © 2019

Note: Actual official high and low records may vary slightly from our data, if they occured in-between our weather recording intervals... More about our weather records

Advertising

New Washington Weather History for the Previous 24 Hours

Scroll right to see more
 ConditionsComfort  
Time TempWeatherWind HumidityBarometerVisibility
9:56 pm
Sat, Oct 19
69 °FOvercast.7 mph53%29.79 "Hg10 mi
8:56 pm68 °FMostly cloudy.7 mph55%29.78 "Hg10 mi
7:56 pm68 °FPassing clouds.6 mph55%29.78 "Hg10 mi
6:56 pm71 °FCloudy.6 mph47%29.78 "Hg10 mi
5:56 pm72 °FPartly sunny.8 mph44%29.78 "Hg10 mi
4:56 pm72 °FPartly sunny.9 mph43%29.79 "Hg10 mi
3:56 pm73 °FPartly sunny.12 mph41%29.80 "Hg10 mi
2:56 pm73 °FPassing clouds.5 mph40%29.83 "Hg10 mi
1:56 pm71 °FPassing clouds.No wind41%29.87 "Hg10 mi
12:56 pm68 °FScattered clouds.9 mph42%29.90 "Hg10 mi
11:56 am63 °FBroken clouds.7 mph48%29.93 "Hg10 mi
10:56 am57 °FPartly sunny.8 mph60%29.94 "Hg10 mi
9:56 am50 °FPartly sunny.3 mph71%29.96 "Hg10 mi
8:56 am47 °FScattered clouds.6 mph77%29.95 "Hg10 mi
7:56 am46 °FSunny.3 mph73%29.95 "Hg10 mi
6:56 am45 °FPassing clouds.No wind76%29.95 "Hg10 mi
5:56 am48 °FClear.No wind68%29.95 "Hg10 mi
4:56 am46 °FPassing clouds.No wind73%29.94 "Hg10 mi
3:56 am48 °FClear.No wind71%29.94 "Hg10 mi
2:56 am49 °FClear.No wind69%29.94 "Hg10 mi
1:56 am51 °FClear.No wind63%29.95 "Hg10 mi
12:56 am53 °FClear.No wind59%29.95 "Hg10 mi
11:56 pm
Fri, Oct 18
53 °FPassing clouds.No wind61%29.96 "Hg10 mi
Weather by CustomWeather, © 2019

See weather overview